Voltar ao catálogo

SL-6 R/B(2)

AtivoHEO
NORAD 14796·ROCKET BODY·🇷🇺 Russia

Lançado Mar 6, 1984 de Plesetsk Cosmodrome

Loading…

Próximas Passagens (próximas 24 horas)

TLE

EnvelhecendoSource: Space-Track

Época: Aug 30, 2026, 18:02 UTC

1 14796U 84024D   26242.75167578  .00000106  00000-0  00000+0 0  9993
2 14796  71.8274  82.1451 4882318 328.1155 253.6445  2.02874843314610

Acompanhe SL-6 R/B(2) em tempo real com AllMySat

Download on the App Store